Location: Melbourne
(37.8170°S, 144.9670°E)
Time: 10:59:56
(UTC+11:00)

ISS - All Passes

Search period start: 24 November 2014 00:00
Search period end: 04 December 2014 00:00
Orbit: 408 x 417 km, 51.6° (Epoch: 23 November)

Date Brightness Start Highest point End Pass type
(mag) Time Alt. Az. Time Alt. Az. Time Alt. Az.
24 Nov - 13:16:22 10° NW 13:19:45 78° NE 13:23:09 10° SE daylight
24 Nov - 14:54:25 10° WSW 14:56:46 17° SSW 14:59:07 10° SSE daylight
24 Nov - 18:11:11 10° S 18:12:34 12° SSE 18:13:57 10° SE daylight
24 Nov - 19:46:36 10° SW 19:49:55 47° SE 19:53:11 10° ENE daylight
24 Nov - 21:24:04 10° W 21:26:17 17° NW 21:28:29 10° N visible
25 Nov - 12:26:53 10° NNW 12:30:03 39° NE 12:33:15 10° ESE daylight
25 Nov - 14:03:56 10° W 14:06:48 24° SSW 14:09:40 10° SSE daylight
25 Nov - 18:57:01 10° SSW 19:00:02 28° SSE 19:03:01 10° E daylight
25 Nov - 20:33:39 10° WSW 20:36:41 30° NW 20:39:40 10° NNE daylight
26 Nov - 11:37:47 10° N 11:40:23 21° NE 11:43:00 10° E daylight
26 Nov - 13:13:39 10° WNW 13:16:51 38° SW 13:20:05 10° SE daylight
26 Nov - 14:53:16 10° SSW 14:54:17 11° SSW 14:55:17 10° S daylight
26 Nov - 18:07:29 10° SSW 18:10:02 19° SSE 18:12:34 10° ESE daylight
26 Nov - 19:43:35 10° WSW 19:46:57 60° NW 19:50:15 10° NE daylight
27 Nov - 10:49:42 10° NE 10:50:43 11° NE 10:51:45 10° ENE daylight
27 Nov - 12:23:34 10° WNW 12:26:56 69° SW 12:30:20 10° SE daylight
27 Nov - 14:02:12 10° SW 14:04:06 14° SSW 14:06:01 10° SSE daylight
27 Nov - 17:18:00 10° SSW 17:19:55 14° SSE 17:21:50 10° SE daylight
27 Nov - 18:53:41 10° SW 18:57:05 70° SE 19:00:26 10° ENE daylight
27 Nov - 20:32:25 10° WNW 20:33:17 11° NW 20:34:09 10° NW daylight
28 Nov - 11:33:42 10° NW 11:37:02 61° NE 11:40:24 10° ESE daylight
28 Nov - 13:11:25 10° WSW 13:13:57 19° SSW 13:16:29 10° SSE daylight
28 Nov - 16:28:40 10° S 16:29:41 11° SSE 16:30:42 10° SSE daylight
28 Nov - 18:03:53 10° SW 18:07:06 39° SE 18:10:18 10° ENE daylight
28 Nov - 19:40:59 10° W 19:43:33 20° NW 19:46:07 10° N daylight
29 Nov - 10:44:09 10° NNW 10:47:10 31° NE 10:50:12 10° ESE daylight
29 Nov - 12:20:49 10° W 12:23:48 28° SSW 12:26:48 10° SSE daylight
29 Nov - 17:14:07 10° SSW 17:17:00 24° SSE 17:19:50 10° E daylight
29 Nov - 18:50:32 10° WSW 18:53:43 38° NW 18:56:52 10° NNE daylight
30 Nov - 09:55:05 10° N 09:57:19 17° NE 09:59:33 10° E daylight
30 Nov - 11:30:24 10° WNW 11:33:40 46° SW 11:36:59 10° SE daylight
30 Nov - 13:09:38 10° SW 13:11:00 12° SSW 13:12:22 10° S daylight
30 Nov - 16:24:25 10° SSW 16:26:46 17° SSE 16:29:06 10° ESE daylight
30 Nov - 18:00:21 10° SW 18:03:45 77° NW 18:07:06 10° NE daylight
01 Dec - 10:40:12 10° NW 10:43:34 87° SW 10:46:59 10° SE daylight
01 Dec - 12:18:30 10° WSW 12:20:38 16° SSW 12:22:47 10° SSE daylight
01 Dec - 15:34:47 10° S 15:36:25 13° SSE 15:38:02 10° SE daylight
01 Dec - 17:10:18 10° SW 17:13:40 55° SE 17:16:59 10° ENE daylight
01 Dec - 18:48:09 10° W 18:49:56 14° NW 18:51:43 10° NNW daylight
02 Dec - 09:50:16 10° NNW 09:53:30 47° NE 09:56:47 10° ESE daylight
02 Dec - 11:27:35 10° W 11:30:18 22° SSW 11:33:01 10° SSE daylight
02 Dec - 14:45:36 10° S 14:45:58 10° SSE 14:46:19 10° SSE daylight
02 Dec - 16:20:20 10° SSW 16:23:27 32° SSE 16:26:31 10° E daylight
02 Dec - 17:57:07 10° WSW 17:59:59 26° NW 18:02:49 10° N daylight
03 Dec - 09:00:40 10° N 09:03:27 24° NE 09:06:15 10° ESE daylight
03 Dec - 10:36:52 10° W 10:39:58 33° SSW 10:43:06 10° SE daylight
03 Dec - 12:16:54 10° SSW 12:17:26 10° SSW 12:17:58 10° S daylight
03 Dec - 15:30:25 10° SSW 15:33:06 21° SSE 15:35:46 10° E daylight
03 Dec - 17:06:37 10° WSW 17:09:55 50° NW 17:13:10 10° NNE daylight
